Temperature
18 19 21 21 21 22 21 19 18 17 16 16 15 15 15 14 14 14 14 14 15 15 16 17 17 18 19 19 18 18 16 15 14 14 13 13 13 12 12 12 11 11 11 11
19 20 21 20 21 20 19 18 17 16 15 15 15 15 13 13 13 12 12 13 13 14 15 15 15 16 17 18 18 18 16 15 14 14 13 13 13 12 12 11 11 11 11 11
17 19 19 18 19 17 15 14 15 13 12 12 13 13 11 11 11 11 11 11 12 12 13 13 13 14 15 16 17 17 17 15 15 14 13 13 13 12 12 11 11 11 11 11
16 18 19 18 18 16 13 11 12 11 10 10 10 11 11 11 10 10 10 11 11 11 11 12 12 13 13 15 15 16 16 16 15 14 13 13 12 12 12 11 11 11 11 11
15 17 18 18 16 16 15 10 10 9 9 9 9 11 12 11 11 10 10 10 10 10 10 10 11 11 11 12 13 14 15 15 15 14 14 13 12 12 12 11 11 11 11 11
16 17 16 14 14 15 15 10 8 8 8 8 9 9 9 10 10 10 10 10 10 10 10 10 10 10 10 10 11 12 13 14 14 14 14 13 13 12 12 11 11 11 11 11
16 15 14 11 12 14 13 10 8 9 9 8 8 8 9 9 9 9 10 10 10 10 10 9 9 9 9 9 9 10 11 12 12 13 13 13 13 12 12 11 11 11 11 11
14 15 13 10 10 9 9 9 9 9 9 8 8 9 9 9 10 10 10 10 10 10 9 9 9 9 9 8 8 9 10 10 11 12 13 13 13 12 12 12 11 11 11 11
11 11 9 10 10 10 10 9 10 9 9 9 9 9 9 10 10 10 10 10 10 10 9 9 9 9 9 8 8 8 9 9 10 11 12 12 12 12 12 12 11 11 11 11
10 9 9 10 10 10 10 10 10 10 9 9 9 9 9 9 9 9 9 10 10 10 9 9 9 9 8 8 8 8 8 8 9 10 11 11 12 12 12 12 11 11 11 11
9 9 10 10 11 11 11 10 10 9 9 9 9 9 9 9 9 9 9 9 9 9 9 9 9 9 8 8 8 7 7 8 8 9 10 11 12 12 12 12 12 12 12 12
8 9 9 10 11 11 10 10 10 9 9 9 9 8 8 8 8 8 8 9 9 9 9 9 9 8 8 8 8 7 7 8 8 8 9 10 11 12 12 12 12 12 12 12
11 11 11 10 10 10 10 9 9 9 9 8 8 8 8 8 8 7 7 8 8 8 8 8 8 8 8 8 7 7 7 7 7 8 9 10 11 11 12 11 11 11 11 11
11 10 10 10 10 9 9 9 9 9 8 8 8 7 7 7 7 6 6 6 6 6 7 7 7 8 8 7 7 7 7 7 7 8 8 9 10 11 12 12 11 10 10 10
10 10 10 10 9 9 9 9 8 8 8 8 7 7 6 6 5 5 5 5 5 5 5 6 6 7 7 7 7 7 7 7 7 7 8 9 10 11 12 12 11 11 10 10
10 9 9 9 9 9 8 8 8 8 7 7 6 5 5 4 4 4 4 4 4 4 4 4 5 6 6 7 7 7 7 7 7 7 8 8 10 11 11 11 11 11 10 10
9 9 9 9 8 8 8 8 7 7 6 5 5 4 3 3 3 3 3 3 3 3 3 3 4 5 5 6 6 6 7 7 7 7 7 8 9 10 11 11 11 11 11 11
9 9 8 8 8 8 7 7 6 6 5 4 3 3 3 3 3 3 3 3 3 3 3 3 3 4 5 5 6 6 7 7 7 7 7 8 9 10 11 11 11 11 11 11
9 8 8 8 7 7 6 6 5 4 4 3 3 3 3 3 3 3 3 3 3 3 3 3 3 3 4 5 5 6 6 7 7 7 7 8 9 10 10 11 12 12 11 11
8 8 8 7 7 6 5 5 4 3 3 3 3 3 3 3 3 3 3 3 3 2 2 3 3 3 4 5 6 6 6 7 7 7 8 9 10 10 11 11 11 11 11 11
8 8 7 6 6 5 5 4 3 3 3 3 3 3 3 4 4 3 3 3 3 3 3 3 3 4 5 5 6 6 6 7 7 7 8 9 10 10 11 11 11 11 11 11
8 7 6 6 5 5 4 4 3 3 3 3 3 4 4 4 4 4 4 4 4 4 4 4 4 5 5 6 6 6 7 7 7 8 8 9 10 11 11 11 11 11 11 11
7 7 6 6 5 4 4 3 3 3 3 3 4 4 4 5 5 4 4 5 5 5 5 5 5 5 6 6 6 7 7 7 8 8 9 10 11 11 11 11 11 11 11 11
6 6 6 5 5 4 3 3 3 3 3 4 4 4 5 5 5 5 5 5 5 5 6 6 6 6 6 6 7 7 7 8 8 9 10 11 11 11 11 11 11 11 11 11
6 5 5 4 4 3 3 2 3 3 3 4 4 5 5 5 5 6 6 6 6 6 6 6 6 7 7 7 7 7 8 8 9 10 10 11 11 11 11 11 11 11 11 11
5 5 4 4 3 2 2 2 2 3 3 4 4 5 5 5 6 6 6 7 7 7 7 7 7 7 7 7 7 8 8 9 10 10 11 11 11 11 11 11 11 11 11 11
5 4 3 3 3 3 3 2 2 3 3 4 4 5 5 5 6 6 7 7 7 7 7 7 7 7 7 8 8 9 9 10 11 11 11 11 12 12 12 12 12 12 12 11
Wind_Speed
8 9 8 11 14 15 13 10 8 4 7 5 7 8 10 11 13 15 15 16 16 15 15 13 12 10 9 10 9 9 9 9 9 9 8 7 6 5 3 3 3 2 3 5
5 7 9 10 10 7 8 8 8 10 7 7 7 8 12 13 14 14 14 15 15 15 16 16 16 16 13 12 10 9 10 10 9 8 8 8 7 6 4 3 2 1 3 5
4 7 6 5 6 6 8 10 6 6 6 11 11 11 10 12 14 15 15 15 16 15 14 15 15 16 17 15 11 9 10 9 9 9 9 8 8 7 6 4 3 3 4 5
2 3 2 1 6 11 13 13 13 10 11 14 16 13 4 11 13 15 16 17 16 14 14 13 13 14 17 17 11 9 9 9 10 10 10 9 8 8 7 5 5 4 5 5
4 3 6 3 6 6 1 7 12 11 12 14 15 13 5 9 10 10 12 12 11 11 11 11 13 13 14 17 14 10 8 9 11 12 11 10 10 9 7 6 5 5 6 7
3 4 5 3 11 16 2 4 7 8 10 12 13 12 10 14 17 17 15 12 12 11 10 11 12 12 12 13 14 14 12 9 10 12 13 12 11 9 7 6 6 7 7 7
3 5 0 7 13 11 4 5 8 9 11 11 8 10 13 16 18 17 16 15 14 13 11 10 10 10 11 11 11 13 14 11 9 11 13 12 11 8 8 8 8 8 8 7
3 3 3 9 7 5 3 7 10 12 13 13 14 16 18 18 17 17 16 15 14 12 12 10 8 7 10 12 11 11 13 12 9 10 12 11 12 11 10 11 10 9 7 6
3 2 2 1 4 6 8 9 11 13 15 16 18 20 20 19 18 18 17 16 13 13 13 11 9 7 8 11 12 11 12 12 10 10 11 11 13 14 11 11 10 9 9 8
5 3 3 4 4 7 10 14 16 17 18 18 20 22 21 19 18 17 17 16 14 13 13 12 11 10 9 9 9 11 11 10 10 9 10 11 12 12 13 13 12 10 10 9
3 3 5 7 10 14 14 15 17 18 18 18 19 21 21 19 18 17 16 15 13 12 13 13 11 11 11 11 9 9 10 9 9 9 10 12 12 13 15 14 15 13 11 11
2 5 6 11 14 17 17 16 17 17 16 15 15 18 19 16 15 15 15 15 14 13 12 12 11 10 11 11 10 8 8 8 8 8 8 9 12 11 15 14 18 19 17 14
6 9 12 15 15 15 14 15 16 15 14 16 15 16 17 15 13 13 14 15 15 14 13 12 11 10 10 10 9 9 9 8 7 8 8 9 11 13 11 8 13 17 18 19
9 10 11 11 12 13 14 15 15 14 15 15 16 16 16 16 15 15 15 15 15 15 14 13 12 11 10 9 9 10 9 9 8 8 8 8 11 12 13 13 11 8 9 16
9 9 11 13 13 14 14 15 17 17 17 17 15 16 17 18 18 18 17 17 16 15 14 13 12 12 10 9 10 10 9 7 6 7 8 7 9 11 12 13 12 10 5 5
11 11 12 14 16 17 17 17 18 17 17 17 17 18 21 22 23 22 20 18 18 17 14 12 12 12 10 10 10 9 9 12 9 6 7 7 8 11 12 12 12 11 11 9
12 13 14 17 18 18 17 17 17 17 18 20 23 25 25 25 24 24 22 20 19 18 16 14 13 12 11 10 10 8 8 8 10 7 7 7 9 11 12 13 12 12 11 13
12 12 14 16 19 20 20 18 17 18 20 24 26 26 26 26 25 24 22 20 19 18 16 15 13 12 12 11 9 8 7 7 6 6 7 7 9 11 12 13 14 13 10 11
14 13 14 16 17 16 17 16 16 19 22 24 26 26 26 25 23 22 20 19 18 16 14 12 15 14 11 11 12 7 7 8 7 6 7 8 10 11 13 13 13 12 12 12
13 14 15 16 15 15 16 17 19 21 23 25 26 26 25 24 21 19 17 14 11 10 10 10 10 10 10 11 13 7 8 8 7 7 7 7 10 12 13 14 14 13 12 12
14 14 15 15 16 16 16 19 21 23 25 25 25 25 24 22 18 15 13 11 10 8 9 11 9 9 8 9 11 7 8 8 8 8 7 8 11 12 13 14 14 13 12 12
13 13 14 16 16 17 18 19 21 24 26 26 26 25 22 19 16 13 11 8 9 10 7 6 7 9 10 10 7 7 7 8 7 6 7 9 11 12 13 14 14 13 12 11
12 11 13 15 15 18 20 21 23 24 25 26 26 24 21 17 11 9 10 8 8 10 8 7 10 13 14 8 6 6 7 7 6 6 7 9 10 11 12 13 13 13 12 11
11 12 14 14 15 17 20 24 24 22 24 24 22 22 19 14 11 7 8 11 12 13 9 10 14 15 12 6 5 5 5 4 4 5 6 8 10 11 11 12 12 12 12 12
12 11 12 15 16 16 17 21 23 23 22 20 22 22 16 12 11 11 10 11 13 13 9 10 13 12 6 4 4 4 3 2 4 5 6 7 9 10 11 11 11 11 11 11
10 11 12 13 13 14 16 17 18 19 19 20 20 18 16 13 12 11 11 12 13 12 9 7 6 4 1 1 2 2 2 3 4 4 6 7 9 10 10 10 12 10 10 10
10 10 11 14 15 15 17 17 18 19 20 20 21 18 16 15 13 13 14 12 11 10 7 4 2 1 1 2 2 2 3 3 3 4 6 7 9 9 10 11 9 8 9 9
Wind_Direction
225 247 266 284 291 292 285 262 232 140 102 42 11 27 38 32 27 26 21 17 12 6 358 347 331 300 262 237 222 202 192 196 205 206 203 203 211 227 254 286 304 347 33 51
283 277 289 294 314 341 19 24 83 96 65 359 352 34 40 28 26 22 13 6 2 360 358 353 343 328 299 262 234 205 196 201 203 198 197 197 197 201 211 247 285 40 85 78
272 301 345 358 4 81 69 29 45 58 21 358 359 16 39 24 18 10 0 355 352 349 346 343 340 340 327 292 254 214 203 200 194 193 196 197 188 183 191 206 210 162 130 106
210 3 307 206 56 101 96 54 37 37 18 8 350 331 46 33 8 350 342 339 338 333 331 332 334 337 340 332 293 240 210 199 194 190 195 192 181 182 188 189 191 177 156 134
153 209 256 122 25 353 169 67 27 22 8 356 342 326 296 354 337 316 310 310 309 310 311 316 325 331 335 345 334 295 245 210 198 191 190 187 186 185 183 180 187 181 162 146
170 219 248 333 336 328 62 86 21 1 337 330 340 334 311 318 318 313 309 308 307 307 312 316 319 323 329 337 344 330 302 255 214 193 189 190 190 182 173 173 182 172 163 157
257 252 131 342 328 340 7 314 307 300 298 300 291 269 280 292 294 289 289 292 294 295 297 298 306 319 322 324 327 328 321 295 242 205 194 190 184 176 170 170 170 172 166 163
345 308 323 357 21 53 251 258 267 280 283 282 275 273 276 279 280 281 282 282 283 283 281 279 284 302 312 312 310 319 325 315 273 225 205 195 181 180 175 172 173 175 168 164
57 84 154 102 156 212 231 258 272 275 277 276 278 280 280 280 280 281 279 277 277 275 278 279 275 275 288 298 305 312 319 322 302 248 216 196 186 184 179 178 180 181 176 176
87 123 211 232 251 253 250 258 270 275 279 280 280 283 284 285 284 281 278 275 274 271 273 276 271 264 261 271 286 296 303 310 311 278 230 207 193 187 186 187 187 185 183 181
64 330 312 282 286 284 283 284 289 291 289 287 288 291 292 292 289 286 283 279 274 269 270 271 270 266 265 264 263 274 286 299 306 289 246 214 199 193 191 193 191 187 188 183
272 263 265 278 281 288 295 296 296 297 298 298 296 295 295 293 290 290 289 285 278 272 268 266 261 260 265 266 256 253 273 290 299 296 266 225 203 197 202 193 189 186 183 181
236 256 263 276 284 290 292 292 293 294 295 299 298 294 295 293 292 290 290 289 283 277 271 261 252 254 261 267 255 245 253 270 287 295 276 235 202 187 184 189 187 185 183 183
266 279 287 286 288 291 292 293 293 291 289 288 290 291 292 293 292 292 291 289 288 284 276 265 256 253 254 257 252 245 247 261 275 293 286 241 203 187 181 177 174 178 191 192
294 293 292 298 300 300 298 297 299 299 295 292 290 293 296 296 294 292 290 289 288 287 283 275 265 259 256 255 253 250 246 251 261 288 288 250 203 183 177 175 174 165 145 161
310 308 305 306 306 306 305 303 303 300 300 303 306 306 303 299 296 293 289 285 281 279 277 270 267 264 260 258 258 254 246 250 255 280 286 250 201 181 174 170 166 165 168 158
322 317 314 314 313 311 307 306 306 309 313 315 314 311 307 303 299 294 290 284 278 274 270 264 263 263 262 260 261 256 245 246 254 272 273 242 202 182 172 167 167 170 172 170
301 298 300 304 308 312 314 313 314 317 318 316 314 312 308 304 300 297 294 289 281 274 267 261 258 259 260 261 262 251 238 235 237 251 265 241 201 180 169 166 167 166 164 165
299 298 302 306 311 314 317 317 319 320 318 316 314 311 307 304 300 298 295 290 283 276 269 260 258 260 259 262 267 247 235 234 240 249 257 227 194 176 168 165 165 163 161 162
304 306 312 317 319 320 322 321 321 320 319 318 314 311 310 309 307 305 302 296 284 273 268 262 261 261 261 264 267 247 234 232 240 252 246 213 184 173 168 166 165 163 162 167
313 317 323 326 325 324 323 322 323 322 321 319 316 315 313 313 313 312 308 306 298 283 273 265 262 260 259 258 258 243 233 233 243 245 227 196 175 167 164 164 166 168 169 171
320 324 324 325 325 325 325 325 325 324 322 321 320 319 319 319 318 317 311 301 296 295 290 275 266 264 265 261 246 234 235 242 241 223 199 177 164 160 159 160 163 169 172 172
321 319 320 323 324 323 325 329 329 327 324 323 323 323 323 320 316 312 313 304 302 298 295 280 271 273 275 266 242 237 239 236 220 195 172 161 156 155 156 157 162 167 171 173
321 321 322 322 324 327 330 330 329 327 324 323 324 326 326 324 320 302 282 287 290 291 288 280 277 278 273 253 238 233 232 216 181 156 147 147 151 153 156 160 163 166 171 172
322 324 326 331 333 331 328 328 328 327 327 328 328 330 329 325 322 319 311 302 297 294 290 285 284 282 265 230 222 219 206 172 134 130 138 145 151 155 157 160 164 166 170 176
325 329 330 327 327 327 330 330 328 327 328 329 331 331 330 330 327 326 321 313 306 302 298 295 295 291 270 203 166 164 141 123 118 132 149 153 155 156 158 160 161 166 171 177
329 333 334 334 334 334 332 329 327 326 326 328 330 330 332 334 334 332 327 321 317 312 309 308 305 313 68 95 91 93 105 117 131 141 149 150 153 156 161 162 167 169 173 178
Height
1521 1515 1512 1510 1506 1501 1503 1503 1510 1513 1517 1516 1512 1509 1507 1504 1501 1498 1495 1493 1490 1488 1485 1483 1480 1477 1474 1471 1468 1465 1463 1462 1461 1460 1459 1458 1457 1457 1456 1456 1454 1453 1451 1449
1517 1510 1508 1507 1503 1500 1504 1505 1508 1513 1519 1516 1513 1510 1508 1505 1503 1501 1498 1495 1491 1488 1484 1481 1478 1473 1469 1466 1463 1460 1457 1457 1457 1456 1456 1455 1454 1455 1455 1455 1455 1454 1452 1451
1525 1513 1511 1517 1510 1511 1517 1519 1516 1522 1526 1520 1515 1513 1511 1508 1504 1502 1498 1495 1491 1488 1483 1478 1474 1469 1464 1460 1458 1455 1452 1451 1451 1452 1452 1451 1451 1452 1453 1454 1454 1454 1454 1454
1524 1520 1525 1520 1510 1512 1521 1527 1526 1527 1527 1524 1521 1516 1511 1506 1504 1500 1497 1493 1489 1486 1481 1476 1470 1464 1458 1453 1450 1449 1447 1446 1446 1446 1447 1447 1447 1448 1450 1452 1453 1454 1455 1455
1527 1527 1520 1513 1514 1515 1517 1530 1531 1530 1528 1524 1519 1512 1508 1504 1501 1497 1493 1490 1486 1482 1477 1472 1467 1460 1454 1449 1444 1443 1442 1440 1440 1441 1442 1443 1443 1444 1447 1450 1452 1453 1454 1455
1522 1526 1529 1526 1519 1514 1515 1529 1532 1528 1524 1520 1514 1511 1504 1499 1495 1491 1487 1483 1478 1474 1470 1466 1461 1456 1450 1445 1440 1437 1435 1434 1434 1434 1435 1437 1438 1440 1443 1446 1450 1452 1453 1455
1522 1525 1523 1532 1523 1515 1524 1531 1529 1524 1521 1517 1515 1511 1502 1496 1491 1487 1482 1477 1473 1468 1464 1460 1455 1451 1446 1441 1436 1432 1428 1426 1426 1428 1429 1431 1433 1435 1438 1443 1447 1450 1452 1453
1525 1527 1533 1533 1529 1532 1536 1529 1525 1521 1517 1513 1507 1501 1495 1488 1483 1478 1473 1469 1465 1460 1456 1453 1449 1444 1440 1435 1431 1426 1421 1418 1417 1419 1422 1424 1427 1430 1433 1438 1443 1446 1449 1451
1532 1537 1538 1534 1533 1532 1529 1525 1520 1515 1510 1505 1498 1492 1486 1480 1475 1470 1465 1460 1456 1452 1447 1444 1442 1437 1433 1428 1424 1420 1416 1411 1409 1410 1413 1416 1419 1423 1426 1431 1437 1441 1444 1447
1534 1536 1535 1533 1530 1527 1523 1519 1513 1508 1503 1498 1491 1484 1478 1471 1466 1460 1455 1451 1447 1442 1438 1435 1433 1430 1425 1421 1417 1414 1410 1406 1402 1401 1403 1407 1411 1415 1419 1423 1429 1434 1438 1442
1538 1537 1534 1531 1527 1522 1517 1512 1507 1502 1497 1491 1484 1476 1469 1462 1456 1451 1445 1440 1436 1432 1428 1425 1423 1420 1417 1414 1409 1406 1403 1399 1395 1392 1393 1397 1401 1406 1410 1415 1420 1426 1431 1436
1541 1536 1534 1528 1522 1516 1511 1505 1500 1494 1488 1482 1477 1469 1461 1454 1448 1442 1436 1431 1426 1422 1419 1416 1413 1411 1408 1405 1402 1398 1395 1391 1387 1384 1383 1387 1392 1397 1403 1408 1414 1420 1426 1431
1536 1532 1528 1522 1517 1512 1506 1500 1494 1488 1481 1474 1466 1460 1453 1445 1438 1432 1426 1421 1417 1412 1409 1406 1404 1401 1399 1397 1393 1390 1387 1384 1380 1376 1375 1378 1383 1388 1394 1401 1407 1414 1420 1426
1532 1528 1522 1517 1512 1506 1500 1493 1486 1479 1472 1465 1456 1449 1442 1434 1427 1421 1415 1410 1406 1401 1398 1395 1393 1391 1389 1387 1385 1382 1379 1376 1373 1369 1367 1369 1374 1380 1386 1392 1398 1406 1414 1421
1529 1524 1519 1512 1505 1499 1492 1485 1476 1468 1460 1452 1445 1438 1430 1422 1414 1408 1402 1397 1392 1388 1386 1384 1382 1380 1379 1377 1375 1373 1370 1368 1366 1362 1360 1361 1367 1373 1379 1386 1392 1399 1407 1415
1524 1519 1513 1506 1499 1492 1484 1476 1467 1458 1450 1441 1434 1426 1418 1410 1401 1393 1387 1383 1378 1373 1372 1371 1369 1369 1368 1367 1366 1364 1362 1361 1359 1357 1354 1356 1361 1367 1373 1379 1386 1394 1401 1408
1519 1512 1505 1498 1491 1483 1476 1468 1460 1450 1441 1432 1423 1413 1404 1394 1385 1378 1371 1367 1363 1359 1357 1356 1356 1356 1356 1356 1356 1355 1354 1353 1353 1351 1349 1351 1355 1362 1368 1374 1381 1389 1396 1403
1517 1510 1503 1495 1486 1477 1468 1460 1451 1442 1433 1423 1412 1401 1391 1381 1372 1363 1356 1351 1347 1344 1343 1342 1343 1344 1345 1346 1346 1346 1346 1346 1346 1346 1344 1346 1351 1357 1364 1371 1378 1385 1392 1399
1510 1503 1496 1489 1480 1471 1462 1453 1444 1434 1424 1413 1401 1390 1380 1370 1360 1352 1344 1338 1333 1330 1330 1331 1332 1333 1334 1336 1337 1338 1339 1340 1339 1339 1339 1341 1347 1353 1360 1368 1375 1382 1388 1394
1503 1496 1489 1481 1473 1465 1456 1446 1436 1425 1414 1403 1391 1380 1369 1360 1351 1342 1335 1329 1325 1322 1321 1321 1323 1324 1326 1328 1329 1331 1332 1332 1333 1333 1334 1337 1343 1350 1358 1365 1373 1380 1386 1391
1497 1490 1483 1475 1467 1459 1450 1440 1429 1417 1406 1395 1384 1372 1362 1352 1344 1337 1329 1324 1320 1318 1316 1316 1317 1318 1320 1322 1323 1324 1325 1325 1326 1327 1329 1334 1340 1348 1355 1363 1370 1377 1383 1389
1492 1485 1478 1470 1462 1453 1444 1434 1423 1412 1399 1388 1377 1367 1357 1347 1340 1334 1328 1324 1320 1317 1315 1314 1314 1315 1316 1317 1317 1318 1318 1319 1319 1321 1326 1332 1339 1347 1354 1361 1368 1375 1381 1386
1488 1481 1473 1466 1458 1449 1439 1429 1418 1406 1395 1384 1373 1363 1354 1346 1339 1333 1327 1323 1320 1317 1315 1313 1312 1312 1312 1312 1312 1312 1312 1313 1316 1319 1325 1332 1339 1346 1353 1360 1366 1373 1379 1383
1484 1477 1470 1463 1454 1445 1434 1423 1413 1403 1392 1381 1371 1362 1352 1344 1337 1332 1327 1322 1318 1315 1313 1311 1309 1308 1307 1306 1306 1307 1308 1311 1315 1321 1327 1334 1340 1347 1353 1359 1365 1371 1376 1381
1481 1474 1466 1459 1451 1442 1432 1421 1410 1399 1389 1379 1369 1360 1352 1345 1338 1331 1326 1322 1317 1314 1311 1308 1306 1305 1304 1303 1303 1305 1308 1311 1317 1323 1329 1335 1341 1347 1353 1359 1365 1370 1375 1380
1477 1470 1464 1457 1449 1440 1430 1420 1409 1399 1389 1379 1369 1360 1351 1344 1337 1331 1325 1320 1316 1312 1309 1306 1304 1302 1302 1302 1304 1307 1310 1315 1320 1326 1332 1337 1343 1348 1354 1359 1365 1370 1374 1379
1474 1467 1459 1451 1443 1436 1427 1418 1409 1399 1390 1380 1370 1360 1353 1344 1337 1331 1325 1319 1314 1310 1307 1305 1304 1304 1304 1305 1308 1311 1315 1320 1325 1330 1334 1339 1344 1349 1355 1360 1365 1370 1374 1378